Time,TemperatureF,DewpointF,PressureIn,WindDirection,WindDirectionDegrees,WindSpeedMPH,WindSpeedGustMPH,Humidity,HourlyPrecipIn,Conditions,Clouds,dailyrainin,SoftwareType,DateUTC
2013-02-09 00:03:00,17.0,-99.9,-100.00,North,-999,-999.0,-999.0,-999,0.00,,,0.15,,2013-02-09 05:03:00,
2013-02-09 00:12:00,17.0,-99.9,-100.00,North,-999,-999.0,-999.0,-999,0.00,,,0.15,,2013-02-09 05:12:00,
2013-02-09 00:22:00,17.0,-99.9,-100.00,North,-999,-999.0,-999.0,-999,0.00,,,0.15,,2013-02-09 05:22:00,
2013-02-09 00:32:00,17.0,-99.9,-100.00,North,-999,-999.0,-999.0,-999,0.00,,,0.15,,2013-02-09 05:32:00,
2013-02-09 00:42:00,17.0,-99.9,-100.00,North,-999,-999.0,-999.0,-999,0.00,,,0.15,,2013-02-09 05:42:00,
2013-02-09 01:02:00,17.0,-99.9,-100.00,North,-999,-999.0,-999.0,-999,0.06,,,0.21,,2013-02-09 06:02:00,
2013-02-09 01:11:00,17.0,-99.9,-100.00,North,-999,-999.0,-999.0,-999,0.06,,,0.21,,2013-02-09 06:11:00,
2013-02-09 01:22:00,17.0,-99.9,-100.00,North,-999,-999.0,-999.0,-999,0.06,,,0.21,,2013-02-09 06:22:00,
2013-02-09 01:32:00,17.0,-99.9,-100.00,North,-999,-999.0,-999.0,-999,0.06,,,0.21,,2013-02-09 06:32:00,
2013-02-09 01:42:00,17.0,-99.9,-100.00,North,-999,-999.0,-999.0,-999,0.06,,,0.21,,2013-02-09 06:42:00,
2013-02-09 02:02:00,18.0,-99.9,-100.00,North,-999,-999.0,-999.0,-999,0.05,,,0.26,,2013-02-09 07:02:00,
2013-02-09 02:11:00,18.0,-99.9,-100.00,North,-999,-999.0,-999.0,-999,0.05,,,0.26,,2013-02-09 07:11:00,
2013-02-09 02:22:00,18.0,-99.9,-100.00,North,-999,-999.0,-999.0,-999,0.05,,,0.26,,2013-02-09 07:22:00,
2013-02-09 02:32:00,18.0,-99.9,-100.00,North,-999,-999.0,-999.0,-999,0.05,,,0.26,,2013-02-09 07:32:00,
2013-02-09 02:42:00,18.0,-99.9,-100.00,North,-999,-999.0,-999.0,-999,0.05,,,0.26,,2013-02-09 07:42:00,
2013-02-09 03:01:00,18.0,-99.9,-100.00,North,-999,-999.0,-999.0,-999,0.05,,,0.31,,2013-02-09 08:01:00,
2013-02-09 03:11:00,18.0,-99.9,-100.00,North,-999,-999.0,-999.0,-999,0.05,,,0.31,,2013-02-09 08:11:00,
2013-02-09 03:22:00,18.0,-99.9,-100.00,North,-999,-999.0,-999.0,-999,0.05,,,0.31,,2013-02-09 08:22:00,
2013-02-09 03:32:00,18.0,-99.9,-100.00,North,-999,-999.0,-999.0,-999,0.05,,,0.31,,2013-02-09 08:32:00,
2013-02-09 03:42:00,18.0,-99.9,-100.00,North,-999,-999.0,-999.0,-999,0.05,,,0.31,,2013-02-09 08:42:00,
2013-02-09 04:03:00,16.0,-99.9,-100.00,North,-999,-999.0,-999.0,-999,0.02,,,0.33,,2013-02-09 09:03:00,
2013-02-09 04:11:00,16.0,-99.9,-100.00,North,-999,-999.0,-999.0,-999,0.02,,,0.33,,2013-02-09 09:11:00,
2013-02-09 04:22:00,16.0,-99.9,-100.00,North,-999,-999.0,-999.0,-999,0.02,,,0.33,,2013-02-09 09:22:00,
2013-02-09 04:32:00,16.0,-99.9,-100.00,North,-999,-999.0,-999.0,-999,0.02,,,0.33,,2013-02-09 09:32:00,
2013-02-09 04:42:00,16.0,-99.9,-100.00,North,-999,-999.0,-999.0,-999,0.02,,,0.33,,2013-02-09 09:42:00,
2013-02-09 05:02:00,15.0,-99.9,-100.00,North,-999,-999.0,-999.0,-999,0.03,,,0.36,,2013-02-09 10:02:00,
2013-02-09 05:22:00,15.0,-99.9,-100.00,North,-999,-999.0,-999.0,-999,0.03,,,0.36,,2013-02-09 10:22:00,
2013-02-09 05:32:00,15.0,-99.9,-100.00,North,-999,-999.0,-999.0,-999,0.03,,,0.36,,2013-02-09 10:32:00,
2013-02-09 05:42:00,15.0,-99.9,-100.00,North,-999,-999.0,-999.0,-999,0.03,,,0.36,,2013-02-09 10:42:00,
2013-02-09 06:02:00,15.0,-99.9,-100.00,North,-999,-999.0,-999.0,-999,0.01,,,0.37,,2013-02-09 11:02:00,
2013-02-09 06:11:00,15.0,-99.9,-100.00,North,-999,-999.0,-999.0,-999,0.01,,,0.37,,2013-02-09 11:11:00,
2013-02-09 06:22:00,15.0,-99.9,-100.00,North,-999,-999.0,-999.0,-999,0.01,,,0.37,,2013-02-09 11:22:00,
2013-02-09 06:32:00,15.0,-99.9,-100.00,North,-999,-999.0,-999.0,-999,0.01,,,0.37,,2013-02-09 11:32:00,
2013-02-09 06:42:00,15.0,-99.9,-100.00,North,-999,-999.0,-999.0,-999,0.01,,,0.37,,2013-02-09 11:42:00,
2013-02-09 07:02:00,13.0,-99.9,-100.00,North,-999,-999.0,-999.0,-999,0.03,,,0.40,,2013-02-09 12:02:00,
2013-02-09 07:12:00,13.0,-99.9,-100.00,North,-999,-999.0,-999.0,-999,0.03,,,0.40,,2013-02-09 12:12:00,
2013-02-09 07:22:00,13.0,-99.9,-100.00,North,-999,-999.0,-999.0,-999,0.03,,,0.40,,2013-02-09 12:22:00,
2013-02-09 07:33:00,13.0,-99.9,-100.00,North,-999,-999.0,-999.0,-999,0.03,,,0.40,,2013-02-09 12:33:00,
2013-02-09 07:42:00,13.0,-99.9,-100.00,North,-999,-999.0,-999.0,-999,0.03,,,0.40,,2013-02-09 12:42:00,
2013-02-09 08:02:00,11.0,-99.9,-100.00,North,-999,-999.0,-999.0,-999,0.01,,,0.40,,2013-02-09 13:02:00,
2013-02-09 08:11:00,11.0,-99.9,-100.00,North,-999,-999.0,-999.0,-999,0.01,,,0.40,,2013-02-09 13:11:00,
2013-02-09 08:22:00,11.0,-99.9,-100.00,North,-999,-999.0,-999.0,-999,0.01,,,0.40,,2013-02-09 13:22:00,
2013-02-09 08:32:00,11.0,-99.9,-100.00,North,-999,-999.0,-999.0,-999,0.01,,,0.40,,2013-02-09 13:32:00,
2013-02-09 08:42:00,11.0,-99.9,-100.00,North,-999,-999.0,-999.0,-999,0.01,,,0.40,,2013-02-09 13:42:00,
2013-02-09 09:02:00,11.0,-99.9,-100.00,North,-999,-999.0,-999.0,-999,0.00,,,0.40,,2013-02-09 14:02:00,
2013-02-09 09:12:00,11.0,-99.9,-100.00,North,-999,-999.0,-999.0,-999,0.00,,,0.40,,2013-02-09 14:12:00,
2013-02-09 09:22:00,11.0,-99.9,-100.00,North,-999,-999.0,-999.0,-999,0.00,,,0.40,,2013-02-09 14:22:00,
2013-02-09 09:32:00,11.0,-99.9,-100.00,North,-999,-999.0,-999.0,-999,0.00,,,0.40,,2013-02-09 14:32:00,
2013-02-09 09:42:00,11.0,-99.9,-100.00,North,-999,-999.0,-999.0,-999,0.00,,,0.40,,2013-02-09 14:42:00,
2013-02-09 10:02:00,10.0,-99.9,-100.00,North,-999,-999.0,-999.0,-999,0.01,,,0.39,,2013-02-09 15:02:00,
2013-02-09 10:12:00,10.0,-99.9,-100.00,North,-999,-999.0,-999.0,-999,0.01,,,0.39,,2013-02-09 15:12:00,
2013-02-09 10:22:00,10.0,-99.9,-100.00,North,-999,-999.0,-999.0,-999,0.01,,,0.39,,2013-02-09 15:22:00,
2013-02-09 10:32:00,10.0,-99.9,-100.00,North,-999,-999.0,-999.0,-999,0.01,,,0.39,,2013-02-09 15:32:00,
2013-02-09 10:42:00,10.0,-99.9,-100.00,North,-999,-999.0,-999.0,-999,0.01,,,0.39,,2013-02-09 15:42:00,
2013-02-09 11:02:00,10.0,-99.9,-100.00,North,-999,-999.0,-999.0,-999,0.00,,,0.36,,2013-02-09 16:02:00,
2013-02-09 11:11:00,10.0,-99.9,-100.00,North,-999,-999.0,-999.0,-999,0.00,,,0.36,,2013-02-09 16:11:00,
2013-02-09 11:22:00,10.0,-99.9,-100.00,North,-999,-999.0,-999.0,-999,0.00,,,0.36,,2013-02-09 16:22:00,
2013-02-09 11:32:00,10.0,-99.9,-100.00,North,-999,-999.0,-999.0,-999,0.00,,,0.36,,2013-02-09 16:32:00,
2013-02-09 11:42:00,10.0,-99.9,-100.00,North,-999,-999.0,-999.0,-999,0.00,,,0.36,,2013-02-09 16:42:00,
2013-02-09 12:02:00,10.0,-99.9,-100.00,North,-999,-999.0,-999.0,-999,0.00,,,0.35,,2013-02-09 17:02:00,
2013-02-09 12:11:00,10.0,-99.9,-100.00,North,-999,-999.0,-999.0,-999,0.00,,,0.35,,2013-02-09 17:11:00,
2013-02-09 12:22:00,10.0,-99.9,-100.00,North,-999,-999.0,-999.0,-999,0.00,,,0.35,,2013-02-09 17:22:00,
2013-02-09 12:32:00,10.0,-99.9,-100.00,North,-999,-999.0,-999.0,-999,0.00,,,0.35,,2013-02-09 17:32:00,
2013-02-09 12:42:00,10.0,-99.9,-100.00,North,-999,-999.0,-999.0,-999,0.00,,,0.35,,2013-02-09 17:42:00,
2013-02-09 13:02:00,12.0,-99.9,-100.00,North,-999,-999.0,-999.0,-999,0.00,,,0.35,,2013-02-09 18:02:00,
2013-02-09 13:12:00,12.0,-99.9,-100.00,North,-999,-999.0,-999.0,-999,0.00,,,0.35,,2013-02-09 18:12:00,
2013-02-09 13:24:00,12.0,-99.9,-100.00,North,-999,-999.0,-999.0,-999,0.00,,,0.35,,2013-02-09 18:24:00,
2013-02-09 13:32:00,12.0,-99.9,-100.00,North,-999,-999.0,-999.0,-999,0.00,,,0.35,,2013-02-09 18:32:00,
2013-02-09 13:42:00,12.0,-99.9,-100.00,North,-999,-999.0,-999.0,-999,0.00,,,0.35,,2013-02-09 18:42:00,
2013-02-09 14:02:00,12.0,-99.9,-100.00,North,-999,-999.0,-999.0,-999,0.00,,,0.35,,2013-02-09 19:02:00,
2013-02-09 14:11:00,12.0,-99.9,-100.00,North,-999,-999.0,-999.0,-999,0.00,,,0.35,,2013-02-09 19:11:00,
2013-02-09 14:22:00,12.0,-99.9,-100.00,North,-999,-999.0,-999.0,-999,0.00,,,0.35,,2013-02-09 19:22:00,
2013-02-09 14:32:00,12.0,-99.9,-100.00,North,-999,-999.0,-999.0,-999,0.00,,,0.35,,2013-02-09 19:32:00,
2013-02-09 14:42:00,12.0,-99.9,-100.00,North,-999,-999.0,-999.0,-999,0.00,,,0.35,,2013-02-09 19:42:00,
2013-02-09 15:02:00,14.0,-99.9,-100.00,North,-999,-999.0,-999.0,-999,0.00,,,0.35,,2013-02-09 20:02:00,
2013-02-09 15:11:00,14.0,-99.9,-100.00,North,-999,-999.0,-999.0,-999,0.00,,,0.35,,2013-02-09 20:11:00,
2013-02-09 15:22:00,14.0,-99.9,-100.00,North,-999,-999.0,-999.0,-999,0.00,,,0.35,,2013-02-09 20:22:00,
2013-02-09 15:32:00,14.0,-99.9,-100.00,North,-999,-999.0,-999.0,-999,0.00,,,0.35,,2013-02-09 20:32:00,
2013-02-09 15:42:00,14.0,-99.9,-100.00,North,-999,-999.0,-999.0,-999,0.00,,,0.35,,2013-02-09 20:42:00,
2013-02-09 16:02:00,14.0,-99.9,-100.00,North,-999,-999.0,-999.0,-999,0.00,,,0.34,,2013-02-09 21:02:00,
2013-02-09 16:12:00,14.0,-99.9,-100.00,North,-999,-999.0,-999.0,-999,0.00,,,0.34,,2013-02-09 21:12:00,
2013-02-09 16:22:00,14.0,-99.9,-100.00,North,-999,-999.0,-999.0,-999,0.00,,,0.34,,2013-02-09 21:22:00,
2013-02-09 16:32:00,14.0,-99.9,-100.00,North,-999,-999.0,-999.0,-999,0.00,,,0.34,,2013-02-09 21:32:00,
2013-02-09 16:42:00,14.0,-99.9,-100.00,North,-999,-999.0,-999.0,-999,0.00,,,0.34,,2013-02-09 21:42:00,
2013-02-09 17:02:00,14.0,-99.9,-100.00,North,-999,-999.0,-999.0,-999,0.00,,,0.33,,2013-02-09 22:02:00,
2013-02-09 17:12:00,14.0,-99.9,-100.00,North,-999,-999.0,-999.0,-999,0.00,,,0.33,,2013-02-09 22:12:00,
2013-02-09 17:22:00,14.0,-99.9,-100.00,North,-999,-999.0,-999.0,-999,0.00,,,0.33,,2013-02-09 22:22:00,
2013-02-09 17:32:00,14.0,-99.9,-100.00,North,-999,-999.0,-999.0,-999,0.00,,,0.33,,2013-02-09 22:32:00,
2013-02-09 17:42:00,14.0,-99.9,-100.00,North,-999,-999.0,-999.0,-999,0.00,,,0.33,,2013-02-09 22:42:00,
2013-02-09 18:02:00,14.0,-99.9,-100.00,North,-999,-999.0,-999.0,-999,0.00,,,0.32,,2013-02-09 23:02:00,
2013-02-09 18:11:00,14.0,-99.9,-100.00,North,-999,-999.0,-999.0,-999,0.00,,,0.32,,2013-02-09 23:11:00,
2013-02-09 18:22:00,14.0,-99.9,-100.00,North,-999,-999.0,-999.0,-999,0.00,,,0.32,,2013-02-09 23:22:00,
2013-02-09 18:32:00,14.0,-99.9,-100.00,North,-999,-999.0,-999.0,-999,0.00,,,0.32,,2013-02-09 23:32:00,
2013-02-09 18:42:00,14.0,-99.9,-100.00,North,-999,-999.0,-999.0,-999,0.00,,,0.32,,2013-02-09 23:42:00,
2013-02-09 19:02:00,14.0,-99.9,-100.00,North,-999,-999.0,-999.0,-999,0.00,,,0.30,,2013-02-10 00:02:00,
2013-02-09 19:12:00,14.0,-99.9,-100.00,North,-999,-999.0,-999.0,-999,0.00,,,0.30,,2013-02-10 00:12:00,
2013-02-09 19:22:00,14.0,-99.9,-100.00,North,-999,-999.0,-999.0,-999,0.00,,,0.30,,2013-02-10 00:22:00,
2013-02-09 19:32:00,14.0,-99.9,-100.00,North,-999,-999.0,-999.0,-999,0.00,,,0.30,,2013-02-10 00:32:00,
2013-02-09 19:42:00,14.0,-99.9,-100.00,North,-999,-999.0,-999.0,-999,0.00,,,0.30,,2013-02-10 00:42:00,
2013-02-09 20:02:00,13.0,-99.9,-100.00,North,-999,-999.0,-999.0,-999,0.00,,,0.29,,2013-02-10 01:02:00,
2013-02-09 20:12:00,13.0,-99.9,-100.00,North,-999,-999.0,-999.0,-999,0.00,,,0.29,,2013-02-10 01:12:00,
2013-02-09 20:22:00,13.0,-99.9,-100.00,North,-999,-999.0,-999.0,-999,0.00,,,0.29,,2013-02-10 01:22:00,
2013-02-09 20:32:00,13.0,-99.9,-100.00,North,-999,-999.0,-999.0,-999,0.00,,,0.29,,2013-02-10 01:32:00,
2013-02-09 20:42:00,13.0,-99.9,-100.00,North,-999,-999.0,-999.0,-999,0.00,,,0.29,,2013-02-10 01:42:00,
2013-02-09 21:02:00,12.0,-99.9,-100.00,North,-999,-999.0,-999.0,-999,0.00,,,0.28,,2013-02-10 02:02:00,
2013-02-09 21:22:00,12.0,-99.9,-100.00,North,-999,-999.0,-999.0,-999,0.00,,,0.28,,2013-02-10 02:22:00,
2013-02-09 21:32:00,12.0,-99.9,-100.00,North,-999,-999.0,-999.0,-999,0.00,,,0.28,,2013-02-10 02:32:00,
2013-02-09 21:42:00,12.0,-99.9,-100.00,North,-999,-999.0,-999.0,-999,0.00,,,0.28,,2013-02-10 02:42:00,
2013-02-09 22:02:00,12.0,-99.9,-100.00,North,-999,-999.0,-999.0,-999,0.00,,,0.27,,2013-02-10 03:02:00,
2013-02-09 22:12:00,12.0,-99.9,-100.00,North,-999,-999.0,-999.0,-999,0.00,,,0.27,,2013-02-10 03:12:00,
2013-02-09 22:22:00,12.0,-99.9,-100.00,North,-999,-999.0,-999.0,-999,0.00,,,0.27,,2013-02-10 03:22:00,
2013-02-09 22:32:00,12.0,-99.9,-100.00,North,-999,-999.0,-999.0,-999,0.00,,,0.27,,2013-02-10 03:32:00,
2013-02-09 22:42:00,12.0,-99.9,-100.00,North,-999,-999.0,-999.0,-999,0.00,,,0.27,,2013-02-10 03:42:00,
2013-02-09 23:02:00,11.0,-99.9,-100.00,North,-999,-999.0,-999.0,-999,0.00,,,0.27,,2013-02-10 04:02:00,
2013-02-09 23:12:00,11.0,-99.9,-100.00,North,-999,-999.0,-999.0,-999,0.00,,,0.27,,2013-02-10 04:12:00,
2013-02-09 23:22:00,11.0,-99.9,-100.00,North,-999,-999.0,-999.0,-999,0.00,,,0.27,,2013-02-10 04:22:00,
2013-02-09 23:32:00,11.0,-99.9,-100.00,North,-999,-999.0,-999.0,-999,0.00,,,0.27,,2013-02-10 04:32:00,
2013-02-09 23:42:00,11.0,-99.9,-100.00,North,-999,-999.0,-999.0,-999,0.00,,,0.27,,2013-02-10 04:42:00,